SCP
-0 0 0 0 0 0 0 0 0 0 0 0 0 0 0 0 0 0 0 0 0 0 0 0 0 0 0 0 0 0 0 0 0 0 0 0 0 0 0 0 0 0 0 0 0 0 0 0 0
0 0 0 0 0 0 0 0 0 0 0 0 0 0 0 0 0 0 0 0 0 0 0 0 0 0 0 0 0 0 0 0 0 0 0 0 0 0 0 0 0 0 0 0 0 0 0 0 0
0 0 0 0 0 0 0 0 0 0 0 0 0 0 0 0 0 0 0 0 0 0 0 0 0 0 0 0 0 0 0 0 0 0 0 0 0 0 0 0 0 0 0 0 0 0 0 0 0
0 0 0 0 0 0 0 0 0 0 0 0 0 0 0 0 0 0 0 0 0 0 0 0 0 0 0 0 0 0 0 0 0 0 0 0 0 0 0 0 0 0 0 0 0 0 0 0 0
0 0 0 0 0 0 0 0 0 0 0 0 0 0 0 0 0 0 0 0 0 0 0 0 0 0 0 0 0 0 0 0 0 0 0 0 0 0 0 0 0 0 0 0 0 0 0 0 0
0 0 0 0 0 0 0 0 0 0 0 0 0 0 0 0 0 0 0 0 0 0 0 0 0 0 0 0 0 0 0 0 0 0 0 0 0 0 0 0 0 0 0 0 0 0 0 0 0
0 0 0 0 0 0 0 0 0 0 0 0 0 0 0 0 0 0 0 0 0 0 0 0 0 0 0 0 0 0 0 0 0 0 0 0 0 0 0 0 0 0 0 0 0 0 0 0 0
0 0 0 0 0 0 0 0 0 0 0 0 0 0 0 0 0 0 0 0 0 0 0 0 0 0 0 0 0 0 0 0 0 0 0 0 0 0 0 0 0 0 0 0 0 0 0 0 0
0 0 0 0 0 0 0 0 0 0 0 0 0 0 0 0 0 0 0 0 0 0 0 0 0 0 0 0 0 0 0 0 0 0 0 0 0 0 0 0 0 0 0 0 0 0 0 0 0
0 0 0 0 0 0 0 0 0 0 0 0 0 0 0 0 0 0 0 0 0 0 0 0 0 0 0 0 0 0 0 0 0 0 0 0 0 0 0 0 0 0 0 0 0 0 0 0 0
0 0 0 0 0 0 0 0 0 0 0 0 0 0 0 0 0 0 0 0 0 0 0 0 0 0 0 0 0 0 0 0 0 0 0 0 0 0 0 0 0 0 0 0 0 0 0 0 0
0 0 0 0 0 0 0 0 0 0 0 0 0 0 0 0 0 0 0 0 0 0 0 0 0 0 0 0 0 0 0 0 0 0 0 0 0 0 0 0 0 0 0 0 0 0 0 0 0
0 0 0 0 0 0 0 0 0 0 0 0 0 0 0 0 0 0 0 0 0 0 0 0 0 0 0 0 0 0 0 0 0 0 0 0 0 0 0 0 0 0 0 0 0 0 0 0 0
0 0 0 0 0 0 0 0 0 0 0 0 0 0 0 0 0 0 0 0 0 0 0 0 0 0 0 0 0 0 0 0 0 0 0 0 0 0 0 0 0 0 0 0 0 0 0 0 0
0 0 0 0 0 0 0 0 0 0 0 0 0 0 0 0 0 0 0 0 0 0 0 0 0 0 0 0 0 0 0 0 0 0 0 0 0 0 0 0 0 0 0 0 0 0 0 0 0
0 0 0 0 0 0 0 0 0 0 0 0 0 0 0 0 0 0 0 0 0 0 0 0 0 0 0 0 0 0 0 0 0 0 0 0 0 0 0 0 0 0 0 0 0 0 0 0 0
0 0 0 0 0 0 0 0 0 0 0 0 0 0 0 0 0 0 0 0 0 0 0 0 0 0 0 0 0 0 0 0 0 0 0 0 0 0 0 0 0 0 0 0 0 0 0 0 0
0 0 0 0 0 0 0 0 0 0 0 0 0 0 0 0 0 0 0 0 0 0 0 0 0 0 0 0 0 0 0 0 0 0 0 0 0 0 0 0 0 0 0 0 0 0 0 0 0
0 0 0 0 0 0 0 0 0 0 0 0 0 0 0 0 0 0 0 0 0 0 0 0 0 0 0 0 0 0 0 0 0 0 0 0 0 0 0 0 0 0 0 0 0 0 0 0 0
0 0 0 0 0 0 0 0 0 0 0 0 0 0 0 0 0 0 0 0 0 0 0 0 0 0 0 0 0 0 0 0 0 0 0 0 0 0 0 0 0 0 0 0 0 0 0 0 0
0 0 0 0 0 0 0 0 0 0 0 0 0 0 0 0 0 0 0 0 0 0 0 0 0 0 0 0 0 0 0 0 0 0 0 0 0 0 0 0 0 0 0 0 0 0 0 0 0
0 0 0 0 0 0 0 0 0 0 0 0 0 0 0 0 0 0 0 0 0 0 0 0 0 0 0 0 0 0 0 0 0 0 0 0 0 0 0 0 0 0 0 0 0 0 0 0 0
0 0 0 0 0 0 0 0 0 0 0 0 0 0 0 0 0 0 0 0 0 0 0 0 0 0 0 0 0 0 0 0 0 0 0 0 0 0 0 0 0 0 0 0 0 0 0 0 0
0 0 0 0 0 0 0 0 0 0 0 0 0 0 0 0 0 0 0 0 0 0 0 0 0 0 0 0 0 0 0 0 0 0 0 0 0 0 0 0 0 0 0 0 0 0 0 0 0
0 0 0 0 0 0 0 0 0 0 0 0 0 0 0 0 0 0 0 0 0 0 0 0 0 0 0 0 0 0 0 0 0 0 0 0 0 0 0 0 0 0 0 0 0 0 0 0 0
0 0 0 0 0 0 0 0 0 0 0 0 0 0 0 0 0 0 0 0 0 0 0 0 0 0 0 0 0 0 0 0 0 0 0 0 0 0 0 0 0 0 0 0 0 0 0 0 0
0 0 0 0 0 0 0 0 0 0 0 0 0 0 0 0 0 0 0 0 0 0 0 0 0 0 0 0 0 0 0 0 0 0 0 0 0 0 0 0 0 0 0 0 0 0 0 0 0
0 0 0 0 0 0 0 0 0 0 0 0 0 0 0 0 0 0 0 0 0 0 0 0 0 0 0 0 0 0 0 0 0 0 0 0 0 0 0 0 0 0 0 0 0 0 0 0 0
0 0 0 0 0 0 0 0 0 0 0 0 0 0 0 0 0 0 0 0 0 0 0 0 0 0 0 0 0 0 0 0 0 0 0 0 0 0 0 0 0 0 0 0 0 0 0 0 0
0 0 0 0 0 0 0 0 0 0 0 0 0 0 0 0 0 0 0 0 0 0 0 0 0 0 0 0 0 0 0 0 0 0 0 0 0 0 0 0 0 0 0 0 0 0 0 0 0
Wind_Speed
2 3 3 3 4 4 4 2 2 3 2 1 1 3 4 5 6 6 4 5 6 11 15 17 14 16 15 13 11 10 9 9 10 10 10 9 9 9 9 9 9 11 12 12 12 11 9 8 8
2 2 2 3 4 4 1 1 3 2 3 1 3 4 5 7 5 5 0 6 7 11 13 15 13 14 15 14 13 12 10 9 9 10 10 11 10 9 8 7 7 9 11 11 12 10 8 7 8
1 2 2 2 3 4 4 1 2 2 4 4 4 4 5 5 2 2 1 7 8 11 12 12 11 13 14 14 15 14 13 11 11 12 13 12 10 9 7 4 4 7 9 10 9 8 7 8 9
2 2 1 3 6 6 6 8 7 8 3 4 4 5 5 4 2 0 2 9 10 12 11 11 11 13 13 12 15 15 14 13 13 14 13 10 8 8 5 3 3 7 8 8 8 8 9 9 9
1 2 3 4 5 5 7 7 6 6 3 3 4 5 5 3 2 2 4 9 10 12 11 12 11 11 11 11 13 14 13 14 15 14 11 9 8 7 6 6 6 7 8 8 9 9 9 9 9
2 2 4 4 4 5 6 4 4 5 3 3 4 5 5 3 4 3 5 8 9 12 12 12 11 10 10 10 11 11 11 12 12 12 9 8 8 8 8 8 9 9 9 9 9 9 8 8 8
3 3 4 4 6 5 3 2 4 4 4 4 4 5 5 3 2 2 5 7 9 11 12 12 14 13 11 10 10 10 10 11 11 11 10 9 9 10 9 9 9 10 10 10 9 9 9 8 8
1 3 3 4 6 5 2 2 3 5 6 1 4 6 6 2 4 3 4 6 9 10 12 13 13 14 14 14 12 11 11 11 11 11 12 10 9 9 8 8 10 11 11 10 9 9 9 9 8
3 4 5 5 6 5 3 4 3 4 7 6 8 10 8 4 3 5 5 7 10 12 13 14 14 14 13 14 13 13 12 12 12 11 13 12 10 10 9 10 9 11 11 11 10 9 8 8 8
5 6 7 5 5 6 5 6 6 7 12 13 11 12 10 7 7 10 11 13 15 17 17 15 16 15 14 11 10 11 12 12 13 11 13 11 9 7 8 7 7 10 10 10 10 9 8 4 3
7 9 6 8 9 7 8 8 6 9 15 15 15 15 11 11 12 14 15 16 16 16 16 16 16 16 15 11 10 8 8 9 12 14 14 11 9 7 7 6 7 9 9 8 8 7 4 4 3
8 11 10 7 5 6 8 8 8 13 19 20 20 17 16 15 15 16 17 16 14 15 16 17 17 16 16 14 11 11 9 9 10 12 15 12 8 9 8 7 8 7 6 6 6 4 5 5 4
10 9 10 11 10 11 13 18 17 19 22 22 19 15 17 18 18 16 16 15 15 16 16 17 18 18 16 15 12 12 12 12 12 12 14 14 11 11 10 8 8 8 7 7 6 6 6 5 5
6 8 9 9 11 8 13 22 19 19 15 16 17 18 17 16 16 16 14 15 16 17 17 17 20 20 19 16 14 13 13 12 13 12 15 16 12 11 11 11 10 9 7 6 6 7 6 5 4
4 9 16 14 12 7 7 15 15 17 10 13 19 20 20 18 16 15 15 14 15 17 17 18 20 21 22 21 19 14 13 13 13 13 16 17 14 14 12 11 10 9 8 8 6 7 5 5 4
3 7 11 8 4 6 8 16 18 10 10 19 21 22 22 21 21 19 16 16 17 16 16 18 15 20 22 20 19 14 13 14 12 12 13 17 17 15 13 10 10 9 8 8 7 7 6 5 5
7 9 12 14 4 7 11 14 18 15 16 24 25 24 21 20 21 18 16 15 16 16 15 16 18 20 20 19 16 15 13 13 12 12 12 15 17 17 13 11 10 11 9 8 7 7 6 6 5
14 17 15 16 9 4 10 16 21 24 23 25 25 20 17 16 16 16 16 16 15 14 12 12 14 17 15 13 12 12 14 13 12 13 13 16 15 17 14 11 13 13 10 9 9 9 6 6 6
15 16 21 22 20 14 19 19 18 21 22 23 19 14 14 13 13 14 16 17 16 14 11 10 10 12 12 11 12 12 13 12 12 12 14 17 16 17 15 11 12 12 12 12 13 9 10 6 7
12 16 21 20 13 8 14 17 17 17 17 14 12 12 11 12 15 19 19 19 19 17 15 10 8 8 11 10 10 9 10 10 11 9 12 15 16 17 15 16 13 14 12 14 14 12 8 6 8
14 14 15 15 13 8 10 10 5 9 12 6 5 4 8 13 18 20 21 21 20 20 19 13 10 6 8 9 6 4 5 4 7 10 10 12 15 16 16 17 15 15 14 14 16 15 15 9 9
12 10 12 12 10 8 7 14 5 11 11 4 3 9 15 17 18 19 19 20 21 20 18 18 14 8 4 6 7 9 8 8 8 7 8 11 14 15 15 16 16 16 14 15 15 15 12 12 10
8 3 1 4 7 10 6 11 7 6 6 1 8 14 16 16 17 18 19 18 20 21 20 19 17 13 7 4 7 8 9 7 5 5 8 10 11 14 15 15 15 15 14 15 16 16 15 11 11
3 2 0 2 4 11 6 8 8 3 0 6 11 15 15 16 17 18 18 20 22 22 21 20 19 18 13 8 6 7 9 9 8 7 7 8 8 10 15 15 15 15 14 16 16 16 19 15 14
5 4 6 6 6 10 1 7 7 0 9 9 10 12 15 17 17 19 21 22 22 22 21 20 21 21 18 14 10 8 9 10 11 9 8 9 8 9 14 15 16 15 15 16 15 16 17 17 15
7 8 9 9 12 15 3 11 4 9 12 12 14 15 16 16 16 17 18 18 17 18 18 19 20 19 19 18 15 11 10 8 8 9 9 9 8 9 11 15 16 17 16 15 15 13 14 14 14
6 9 9 8 8 13 16 16 5 9 9 11 12 12 13 13 14 15 15 15 15 16 16 16 16 16 16 17 17 16 14 11 11 11 10 9 9 8 10 13 16 17 17 16 16 13 15 14 15
8 4 4 8 10 18 24 27 21 10 3 6 8 10 11 11 11 12 11 12 12 12 13 14 15 15 15 15 14 12 15 14 12 11 11 11 11 10 10 12 14 16 16 17 17 15 16 16 15
9 8 9 8 8 10 15 16 5 2 5 3 4 6 8 9 9 9 9 9 10 11 12 14 14 15 15 14 13 13 13 14 14 12 12 11 11 10 11 12 13 15 16 17 17 18 17 18 17
12 15 15 14 15 14 15 15 4 5 6 4 3 2 3 6 8 8 8 9 10 11 12 12 13 13 14 13 12 12 12 12 13 13 13 12 12 11 11 12 13 14 15 17 18 19 17 19 20
Wind_Direction
26 351 283 257 253 248 263 254 261 284 278 315 235 244 272 275 286 325 55 156 171 167 171 170 177 177 178 178 174 168 167 167 165 161 154 145 127 111 92 74 90 102 100 94 85 76 72 72 73
18 313 256 270 275 273 274 224 238 300 325 269 217 233 251 257 261 300 4 176 183 176 176 179 174 179 180 180 176 176 182 187 181 170 153 137 123 108 90 72 78 98 99 92 86 86 86 84 74
86 332 301 270 267 295 344 31 313 320 288 266 256 242 264 267 215 255 27 173 180 182 182 181 175 183 183 184 180 180 187 197 190 159 140 131 119 105 89 65 67 98 96 91 93 98 101 93 80
201 177 194 263 267 272 276 296 306 296 257 230 272 262 244 253 254 84 137 169 175 178 185 180 181 189 190 189 185 186 191 193 176 153 144 133 122 112 115 141 125 108 106 110 116 117 110 97 87
189 211 228 254 265 263 264 292 292 277 268 201 236 269 264 197 205 205 174 177 180 175 186 184 178 182 186 195 196 197 197 190 169 156 146 141 143 143 164 175 150 134 130 133 132 122 112 104 97
160 207 241 267 270 272 274 269 264 265 262 223 228 255 268 162 207 210 187 188 188 181 186 189 178 182 183 190 194 193 190 178 169 155 149 164 168 171 182 180 163 153 149 142 132 124 116 111 105
209 220 259 274 284 280 256 187 242 272 263 231 219 252 261 193 170 183 185 192 192 189 192 195 192 191 191 191 188 182 176 172 170 161 163 172 171 180 184 179 172 164 153 144 138 129 122 115 104
234 226 231 246 259 270 235 205 241 265 291 207 215 246 269 106 107 145 168 198 200 200 203 201 203 201 199 198 197 193 186 180 177 171 162 158 162 178 179 180 178 168 156 148 139 132 124 113 102
213 229 241 238 243 258 229 239 226 250 264 240 228 245 291 88 146 176 184 204 210 211 209 206 206 208 207 204 200 201 193 186 178 173 155 159 182 186 183 186 178 167 155 151 143 132 116 104 92
207 232 240 225 232 258 262 262 274 256 262 262 256 252 248 229 228 231 222 214 210 212 209 207 206 206 206 205 203 207 205 198 196 192 180 182 184 182 181 169 177 155 149 153 146 132 127 132 118
215 235 240 231 237 255 271 266 241 256 273 274 281 289 279 248 240 240 240 235 225 218 209 209 207 204 202 199 202 202 202 200 199 193 184 179 176 174 182 172 161 158 158 157 146 151 159 155 140
226 242 243 245 222 225 252 267 253 242 265 281 286 290 286 270 253 244 247 247 239 228 217 209 207 206 205 201 197 197 197 195 192 188 183 179 178 181 182 181 175 170 166 159 164 167 157 145 130
231 255 250 251 244 249 262 263 268 264 268 278 284 280 269 269 266 258 253 257 249 238 226 214 206 207 205 205 202 200 198 196 194 188 189 186 183 183 182 183 180 177 171 173 172 166 157 150 139
262 262 271 260 248 241 253 270 271 267 273 281 285 284 282 274 267 267 257 246 241 239 230 216 209 206 204 203 205 203 202 198 196 191 191 190 188 185 183 183 182 178 178 177 173 164 161 156 143
308 289 282 262 246 244 238 269 258 268 291 285 289 292 291 283 275 270 272 264 250 240 233 220 212 206 206 206 206 205 203 199 198 196 194 192 191 187 184 183 182 178 173 168 164 161 161 151 142
247 258 271 271 206 190 203 267 285 315 310 297 294 289 285 288 291 292 287 272 262 252 237 225 212 209 209 209 209 206 204 202 202 198 194 195 193 188 184 181 181 173 171 172 169 165 158 159 164
235 258 270 290 237 179 216 271 299 310 300 294 289 285 292 298 300 305 302 290 276 263 246 229 216 213 212 211 211 208 206 206 206 202 198 196 193 189 185 182 175 171 173 177 171 170 164 164 158
276 278 278 281 286 236 256 275 291 294 289 283 284 296 306 305 313 325 328 321 309 294 271 242 223 219 214 212 215 212 210 208 209 207 204 196 193 190 187 182 174 172 172 175 175 168 162 152 140
286 285 281 281 286 292 286 290 292 287 286 282 292 310 312 322 337 354 358 353 344 338 322 285 246 221 206 203 209 212 213 211 212 211 207 202 194 189 189 183 178 179 179 179 176 165 160 152 152
256 267 274 282 289 274 285 291 287 279 270 279 309 309 322 348 8 13 12 12 8 4 355 334 283 240 215 211 210 215 218 219 217 214 215 210 201 193 192 186 183 185 183 181 181 174 168 156 182
255 258 271 280 308 281 294 284 242 269 267 291 300 328 35 30 23 20 19 17 14 12 6 359 339 285 234 223 220 217 222 238 217 215 215 216 213 205 201 193 186 187 187 187 188 185 176 172 185
261 261 264 280 294 295 324 303 257 262 285 317 38 55 43 36 32 30 25 22 20 17 17 17 11 354 295 237 223 219 221 230 230 224 218 215 220 220 214 205 196 191 192 192 190 191 190 181 179
238 8 280 268 273 283 244 268 308 246 270 172 72 52 43 38 35 33 30 27 27 26 26 23 23 19 359 287 252 244 246 255 266 250 232 217 213 222 222 217 208 199 198 195 189 189 193 196 190
173 117 40 241 261 274 255 240 307 238 228 58 68 54 43 37 36 33 30 30 30 29 31 30 30 26 13 348 303 272 269 271 267 254 241 222 211 214 220 220 216 208 204 199 194 193 196 200 201
181 236 277 268 250 268 143 244 253 262 51 61 72 58 45 36 32 29 29 28 27 25 27 30 33 30 21 10 349 319 296 286 278 271 254 235 219 213 215 215 217 214 212 207 200 199 202 203 202
196 214 236 266 272 283 261 253 279 90 75 60 51 45 39 35 31 31 30 30 29 27 25 28 31 30 25 20 9 352 329 307 295 286 275 258 242 229 221 217 222 221 216 211 207 207 207 206 207
193 217 241 256 270 276 263 259 218 109 69 48 45 45 42 36 32 29 26 25 24 25 25 27 30 30 28 26 22 13 0 340 318 304 289 277 263 252 238 224 225 227 219 212 206 209 207 207 209
238 246 193 226 248 256 259 263 265 241 99 51 39 37 35 32 30 26 20 18 17 17 17 20 25 26 24 24 25 21 15 4 345 325 304 290 279 265 249 236 229 229 226 218 211 212 208 208 210
218 212 228 247 246 252 260 260 308 110 131 99 52 34 28 25 21 18 14 10 10 12 13 14 15 16 15 14 14 15 15 12 6 353 334 315 297 278 259 245 233 229 227 224 222 219 208 207 208
247 240 239 246 247 246 260 264 108 142 151 161 159 100 32 15 7 4 6 4 4 6 7 6 6 9 5 2 2 5 6 7 7 2 352 336 316 295 270 255 244 235 231 228 227 226 218 209 207